Weather History for Ostrava, Czech Republic

Change the Weather History Date:

Thursday, June 13, 2013

  Actual Average (EPKT) Record (EPKT)
Temperature  
Mean Temperature 62 °F -  
Max Temperature 76 °F 72 °F 82 °F (2000)
Min Temperature 47 °F 52 °F 41 °F (2001)
Degree Days  
Heating Degree Days 4    
Growing Degree Days 12 (Base 50)    
Moisture  
Dew Point 51 °F    
Average Humidity 66    
Maximum Humidity 95    
Minimum Humidity 28    
Precipitation  
Precipitation 0.00 in 0.13 in - ()
Sea Level Pressure  
Sea Level Pressure 30.11 in    
Wind  
Wind Speed 3 mph ()    
Max Wind Speed 6 mph    
Max Gust Speed -    
Visibility 8.3 miles    
Events      
Averages and records for this station are not official NWS values.
T = Trace of Precipitation, MM = Missing Value Source: Averaged Metar Reports

Daily Weather History Graph

Daily Weather History Graph

Search for Another Location

Airport:

Trip Planner

Search our weather history database for the weather conditions in past years. The results will help you decide how hot, cold, wet, or windy it might be!

Date:

Astronomy

Jun. 13, 2013 Rise Set
Actual Time 4:39 AM CEST 8:55 PM CEST
Civil Twilight 3:55 AM CEST 9:39 PM CEST
Nautical Twilight 2:52 AM CEST 10:43 PM CEST
Astronomical Twilight 1:19 AM CEST 12:15 AM CEST
Moon 9:20 AM CEST (6/13) 11:28 PM CEST (6/13)
Length of Visible Light 17h 44m
Length of Day
16h 16m
Waxing Crescent, 19% of the Moon is Illuminated
Jun 13
Waxing Crescent
Jun 16
First Quarter
Jun 23
Full
Jun 30
Last Quarter
Jul 8
New

Hourly Weather History & Observations

Time (CEST) Temp. Dew Point Humidity Pressure Visibility Wind Dir Wind Speed Gust Speed Precip Events Conditions
12:00 AM 55.4 °F 51.8 °F 88% 30.15 in - South 3.5 mph - N/A   Clear
12:30 AM 55.4 °F 51.8 °F 88% 30.15 in - Variable 1.2 mph - N/A   Clear
1:00 AM 53.6 °F 50.0 °F 88% 30.15 in - SSW 3.5 mph - N/A   Clear
1:30 AM 50.0 °F 48.2 °F 94% 30.15 in - SW 4.6 mph - N/A   Clear
2:00 AM 50 °F 49 °F 95% 30.19 in 12 mi West 2.2 mph - -  
2:00 AM 50.0 °F 48.2 °F 94% 30.15 in - West 2.3 mph - N/A   Clear
2:30 AM 51.8 °F 50.0 °F 94% 30.18 in - Variable 2.3 mph - N/A   Clear
3:00 AM 51.8 °F 50.0 °F 94% 30.15 in - SSE 2.3 mph - N/A   Clear
3:30 AM 50.0 °F 48.2 °F 94% 30.15 in - SW 2.3 mph - N/A   Clear
4:00 AM 50.0 °F 48.2 °F 94% 30.18 in - WSW 3.5 mph - N/A   Clear
4:30 AM 48.2 °F 46.4 °F 93% 30.18 in - SW 3.5 mph - N/A   Clear
5:00 AM 50.0 °F 48.2 °F 94% 30.15 in - South 3.5 mph - N/A   Clear
5:30 AM 50.0 °F 48.2 °F 94% 30.18 in - Variable 1.2 mph - N/A   Clear
6:00 AM 50.0 °F 48.2 °F 94% 30.15 in - Variable 1.2 mph - N/A   Clear
6:30 AM 51.8 °F 50.0 °F 94% 30.15 in - West 3.5 mph - N/A   Clear
7:00 AM 53.6 °F 51.8 °F 94% 30.15 in - SW 3.5 mph - N/A   Clear
7:30 AM 55.4 °F 51.8 °F 88% 30.15 in - Variable 2.3 mph - N/A   Clear
8:00 AM 58 °F 52 °F 76% 30.18 in 19 mi 2.2 mph - -   Clear
8:00 AM 57.2 °F 53.6 °F 88% 30.18 in - Variable 2.3 mph - N/A   Clear
8:30 AM 60.8 °F 53.6 °F 77% 30.15 in - WSW 3.5 mph - N/A   Clear
9:00 AM 62.6 °F 53.6 °F 72% 30.15 in - Variable 2.3 mph - N/A   Clear
9:30 AM 64.4 °F 55.4 °F 73% 30.15 in 6.2 mi Variable 2.3 mph - N/A   Partly Cloudy
10:00 AM 66.2 °F 55.4 °F 68% 30.15 in 6.2 mi Variable 1.2 mph - N/A   Partly Cloudy
10:30 AM 68.0 °F 53.6 °F 60% 30.15 in 6.2 mi Variable 2.3 mph - N/A   Scattered Clouds
11:00 AM 69.8 °F 53.6 °F 56% 30.15 in 6.2 mi Variable 2.3 mph - N/A   Scattered Clouds
11:30 AM 71.6 °F 50.0 °F 46% 30.15 in 6.2 mi Variable 2.3 mph - N/A   Scattered Clouds
12:00 PM 71.6 °F 50.0 °F 46% 30.15 in 6.2 mi Variable 2.3 mph - N/A   Scattered Clouds
12:30 PM 73.4 °F 51.8 °F 47% 30.12 in 6.2 mi NNE 4.6 mph - N/A   Scattered Clouds
1:00 PM 73.4 °F 50.0 °F 44% 30.12 in - North 4.6 mph - N/A   Clear
1:30 PM 73.4 °F 51.8 °F 47% 30.12 in - Variable 2.3 mph - N/A   Clear
2:00 PM 73 °F 47 °F 28% 30.09 in 28 mi 4.5 mph - -   Scattered Clouds
2:00 PM 73.4 °F 50.0 °F 44% 30.09 in - NNW 5.8 mph - N/A   Clear
2:30 PM 75.2 °F 50.0 °F 41% 30.09 in - North 4.6 mph - N/A   Clear
3:00 PM 75.2 °F 48.2 °F 38% 30.09 in - NW 5.8 mph - N/A   Clear
3:30 PM 75.2 °F 48.2 °F 38% 30.09 in - Variable 4.6 mph - N/A   Clear
4:00 PM 75.2 °F 48.2 °F 38% 30.06 in - Variable 3.5 mph - N/A   Clear
4:30 PM 77.0 °F 51.8 °F 41% 30.06 in - North 4.6 mph - N/A   Clear
5:00 PM 75.2 °F 50.0 °F 41% 30.06 in - NNE 3.5 mph - N/A   Clear
5:30 PM 75.2 °F 51.8 °F 44% 30.06 in - NNE 4.6 mph - N/A   Clear
6:00 PM 75.2 °F 50.0 °F 41% 30.04 in - NNE 4.6 mph - N/A   Clear
6:30 PM 75.2 °F 50.0 °F 41% 30.04 in - NNE 4.6 mph - N/A   Clear
7:00 PM 73.4 °F 51.8 °F 47% 30.04 in - ENE 3.5 mph - N/A   Clear
7:30 PM 73.4 °F 51.8 °F 47% 30.04 in - NE 3.5 mph - N/A   Clear
8:00 PM 73 °F 49 °F 32% 30.01 in 25 mi East 4.5 mph - -   Clear
8:00 PM 73.4 °F 50.0 °F 44% 30.04 in - East 2.3 mph - N/A   Clear
8:30 PM 71.6 °F 51.8 °F 50% 30.04 in - East 2.3 mph - N/A   Clear
9:00 PM 69.8 °F 51.8 °F 53% 30.01 in - ESE 2.3 mph - N/A   Clear
9:30 PM 68.0 °F 51.8 °F 56% 30.01 in - SE 3.5 mph - N/A   Clear
10:00 PM 66.2 °F 51.8 °F 60% 30.01 in - SE 2.3 mph - N/A   Clear
10:30 PM 60.8 °F 53.6 °F 77% 30.01 in - West 3.5 mph - N/A   Clear
11:00 PM 60.8 °F 51.8 °F 72% 30.01 in - Variable 1.2 mph - N/A   Clear
11:30 PM 59.0 °F 53.6 °F 82% 30.01 in - Calm Calm - N/A   Clear